Вернуться в каталог

THORAD AGENA D DEB

АктивенLEO
NORAD 5390·DEBRIS·🇺🇸 United States

Запущен Apr 8, 1970 с Vandenberg Space Force Base

Loading…

Ближайшие Пролёты (ближайшие 24 часа)

TLE

СвежийSource: Space-Track

Эпоха: Sep 14, 2026, 02:04 UTC

1 05390U 70025KV  26257.08650282  .00000548  00000-0  50210-3 0  9992
2 05390 100.0685 312.4673 0050406  88.0781 301.8443 13.87436601821533

Отслеживайте THORAD AGENA D DEB в реальном времени с AllMySat

Download on the App Store